Date,TemperatureHighF,TemperatureAvgF,TemperatureLowF,DewpointHighF,DewpointAvgF,DewpointLowF,HumidityHigh,HumidityAvg,HumidityLow,PressureMaxIn,PressureMinIn,WindSpeedMaxMPH,WindSpeedAvgMPH,GustSpeedMaxMPH,PrecipitationSumIn
2013-3-1,40,37,35,37,34,32,97,87,77,29.63,29.45,16,8,37,0.00
2013-3-2,42,37,35,34,31,29,92,79,60,29.64,29.58,9,5,37,0.00
2013-3-3,39,36,34,34,32,30,94,84,73,29.59,29.53,7,4,37,0.00
2013-3-4,40,35,32,32,28,24,95,78,55,29.64,29.52,15,9,37,0.00
2013-3-5,42,37,34,38,33,28,97,87,78,30.01,29.65,13,8,37,0.05
2013-3-6,40,38,36,36,35,34,94,87,80,30.03,29.88,21,13,37,0.01
2013-3-7,38,36,34,36,35,34,99,97,89,29.87,29.79,24,20,43,0.51
2013-3-8,39,36,34,38,35,33,99,98,83,30.00,29.77,22,18,41,0.45
2013-3-9,39,37,36,34,33,31,88,84,79,30.27,30.00,18,13,37,0.00
2013-3-10,40,38,35,34,33,32,87,82,76,30.36,30.26,11,6,37,0.00
2013-3-11,45,40,36,40,36,32,95,89,81,30.32,30.17,13,7,37,0.00
2013-3-12,49,46,42,48,45,40,99,95,91,30.18,29.75,19,14,37,0.10
2013-3-13,51,45,40,49,39,24,99,80,49,29.75,29.66,20,7,37,0.77
2013-3-14,40,34,26,28,21,12,79,61,44,29.76,29.66,14,6,37,0.00
2013-3-15,38,30,23,29,17,10,73,58,35,29.83,29.64,16,11,37,0.00
2013-3-16,38,34,32,28,22,16,74,60,48,29.84,29.64,12,6,37,0.00
2013-3-17,37,33,27,27,20,12,92,61,42,30.26,29.83,13,5,37,0.00
2013-3-18,33,30,25,28,18,9,94,61,45,30.42,30.23,10,5,37,0.00
2013-3-19,44,37,30,44,36,28,99,97,90,30.23,29.45,21,14,37,0.25
2013-3-20,40,34,28,32,25,20,98,70,44,29.81,29.58,17,10,37,0.00
2013-3-21,40,36,30,33,30,27,97,81,61,29.81,29.53,13,6,37,0.00
2013-3-22,38,32,29,31,29,25,98,87,67,29.71,29.52,9,3,37,0.11
2013-3-23,43,36,29,26,23,19,79,60,40,29.73,29.60,15,9,37,0.00
2013-3-24,44,37,33,30,26,22,85,66,47,29.79,29.71,11,6,37,0.00
2013-3-25,44,38,31,36,32,28,92,79,62,29.73,29.40,15,8,37,0.00
2013-3-26,46,39,35,35,29,23,89,68,40,29.73,29.39,15,9,37,0.00
2013-3-27,51,42,32,37,31,26,90,66,39,29.80,29.71,10,5,37,0.00
2013-3-28,47,41,37,38,35,29,95,79,52,29.99,29.78,12,6,37,0.04
2013-3-29,54,44,38,40,36,33,85,72,54,30.01,29.96,10,4,37,0.00
2013-3-30,53,44,40,38,36,30,90,73,42,30.08,29.99,10,5,37,0.00
2013-3-31,49,43,34,42,38,31,96,82,63,30.11,29.77,19,6,37,0.02